QPF
0.00 0.00 0.00 0.00 0.00 0.00 0.00 0.00 0.00 0.00 0.00 0.00 0.00 0.00 0.00 0.00 0.00 0.00 0.00 0.00 0.00 0.00 0.00 0.00 0.00 0.00 0.00 0.00 0.00 0.00 0.00 0.00 0.00 0.00 0.00 0.00 0.00 0.00 0.00 0.00 0.00 0.00 0.00
0.00 0.00 0.00 0.00 0.00 0.00 0.00 0.00 0.00 0.00 0.00 0.00 0.00 0.00 0.00 0.00 0.00 0.00 0.00 0.00 0.00 0.01 0.01 0.01 0.01 0.01 0.01 0.01 0.01 0.00 0.00 0.00 0.00 0.00 0.00 0.00 0.00 0.00 0.00 0.00 0.00 0.00 0.00
0.00 0.00 0.00 0.00 0.00 0.00 0.00 0.00 0.00 0.00 0.00 0.00 0.01 0.01 0.01 0.01 0.01 0.01 0.00 0.01 0.01 0.01 0.01 0.01 0.01 0.01 0.01 0.01 0.00 0.00 0.00 0.00 0.00 0.00 0.00 0.00 0.00 0.00 0.00 0.00 0.00 0.00 0.00
0.00 0.00 0.00 0.00 0.00 0.00 0.00 0.00 0.00 0.01 0.01 0.01 0.01 0.01 0.01 0.01 0.01 0.01 0.01 0.01 0.01 0.01 0.01 0.01 0.01 0.01 0.01 0.01 0.01 0.00 0.00 0.00 0.00 0.00 0.00 0.00 0.00 0.00 0.00 0.00 0.00 0.00 0.00
0.00 0.00 0.00 0.00 0.00 0.00 0.00 0.01 0.00 0.01 0.01 0.00 0.00 0.01 0.01 0.01 0.01 0.02 0.02 0.02 0.02 0.01 0.01 0.01 0.01 0.01 0.01 0.01 0.00 0.00 0.00 0.00 0.00 0.00 0.00 0.00 0.00 0.00 0.00 0.00 0.00 0.00 0.00
0.00 0.00 0.00 0.00 0.00 0.00 0.00 0.00 0.01 0.01 0.01 0.01 0.01 0.01 0.01 0.01 0.03 0.03 0.02 0.02 0.01 0.01 0.01 0.01 0.01 0.01 0.01 0.01 0.00 0.00 0.00 0.00 0.00 0.00 0.00 0.00 0.00 0.00 0.00 0.00 0.00 0.00 0.00
0.00 0.00 0.00 0.00 0.00 0.00 0.00 0.00 0.01 0.01 0.01 0.01 0.01 0.01 0.01 0.02 0.03 0.03 0.03 0.02 0.01 0.01 0.01 0.01 0.01 0.01 0.01 0.00 0.00 0.00 0.00 0.00 0.00 0.00 0.00 0.00 0.00 0.00 0.00 0.00 0.00 0.00 0.00
0.00 0.00 0.00 0.00 0.00 0.00 0.00 0.00 0.01 0.01 0.01 0.01 0.01 0.01 0.01 0.02 0.04 0.04 0.04 0.03 0.02 0.02 0.02 0.01 0.01 0.01 0.01 0.00 0.00 0.00 0.00 0.00 0.00 0.00 0.00 0.00 0.00 0.00 0.00 0.00 0.00 0.00 0.00
0.00 0.00 0.00 0.00 0.00 0.00 0.00 0.00 0.00 0.01 0.01 0.01 0.01 0.01 0.01 0.02 0.04 0.04 0.04 0.03 0.03 0.04 0.03 0.02 0.02 0.01 0.01 0.01 0.01 0.00 0.00 0.00 0.00 0.00 0.00 0.00 0.00 0.00 0.00 0.00 0.00 0.00 0.00
0.00 0.00 0.00 0.00 0.00 0.00 0.00 0.00 0.00 0.00 0.01 0.01 0.01 0.01 0.01 0.01 0.03 0.04 0.03 0.02 0.03 0.04 0.03 0.03 0.02 0.02 0.02 0.01 0.01 0.00 0.01 0.00 0.00 0.00 0.00 0.00 0.00 0.00 0.00 0.00 0.00 0.00 0.00
0.00 0.00 0.00 0.00 0.00 0.00 0.00 0.00 0.00 0.00 0.00 0.01 0.01 0.01 0.01 0.02 0.03 0.03 0.03 0.02 0.02 0.02 0.02 0.02 0.01 0.01 0.01 0.01 0.01 0.00 0.00 0.00 0.00 0.00 0.00 0.00 0.00 0.00 0.00 0.00 0.00 0.00 0.00
0.00 0.00 0.00 0.00 0.00 0.00 0.00 0.00 0.00 0.00 0.00 0.01 0.01 0.01 0.01 0.01 0.02 0.02 0.02 0.02 0.01 0.01 0.02 0.02 0.01 0.01 0.01 0.01 0.01 0.01 0.01 0.01 0.01 0.01 0.01 0.00 0.00 0.00 0.00 0.00 0.00 0.00 0.00
0.00 0.00 0.00 0.00 0.00 0.00 0.00 0.00 0.00 0.00 0.00 0.00 0.00 0.00 0.00 0.01 0.01 0.02 0.02 0.01 0.01 0.01 0.01 0.01 0.01 0.01 0.01 0.01 0.01 0.01 0.01 0.01 0.01 0.01 0.00 0.00 0.00 0.00 0.00 0.00 0.00 0.00 0.00
0.00 0.00 0.00 0.00 0.00 0.00 0.00 0.00 0.00 0.00 0.00 0.00 0.00 0.00 0.00 0.01 0.01 0.01 0.01 0.01 0.01 0.01 0.01 0.01 0.01 0.01 0.01 0.01 0.02 0.02 0.02 0.01 0.01 0.01 0.00 0.00 0.00 0.00 0.00 0.00 0.00 0.00 0.00
0.00 0.00 0.00 0.00 0.00 0.00 0.00 0.00 0.00 0.00 0.00 0.00 0.00 0.00 0.01 0.01 0.01 0.01 0.01 0.01 0.01 0.02 0.02 0.02 0.02 0.02 0.02 0.02 0.02 0.02 0.02 0.02 0.02 0.01 0.01 0.01 0.00 0.00 0.00 0.00 0.00 0.00 0.00
0.00 0.00 0.00 0.00 0.00 0.00 0.00 0.00 0.00 0.00 0.01 0.01 0.01 0.01 0.01 0.01 0.01 0.01 0.02 0.02 0.02 0.02 0.02 0.02 0.02 0.02 0.02 0.02 0.03 0.03 0.02 0.02 0.01 0.01 0.01 0.01 0.01 0.00 0.00 0.00 0.00 0.00 0.00
0.00 0.00 0.00 0.00 0.00 0.00 0.00 0.00 0.00 0.00 0.01 0.01 0.01 0.01 0.00 0.01 0.01 0.01 0.02 0.02 0.02 0.02 0.02 0.02 0.02 0.02 0.02 0.02 0.03 0.03 0.02 0.02 0.01 0.01 0.01 0.01 0.01 0.01 0.01 0.00 0.00 0.00 0.00
0.00 0.00 0.00 0.00 0.00 0.00 0.00 0.00 0.00 0.00 0.00 0.00 0.00 0.01 0.01 0.01 0.01 0.02 0.02 0.03 0.03 0.03 0.02 0.02 0.02 0.02 0.02 0.03 0.02 0.02 0.02 0.02 0.01 0.01 0.01 0.01 0.01 0.01 0.01 0.01 0.00 0.00 0.00
0.00 0.00 0.00 0.00 0.00 0.00 0.00 0.00 0.00 0.00 0.00 0.00 0.00 0.01 0.01 0.01 0.02 0.02 0.03 0.03 0.02 0.02 0.02 0.02 0.02 0.03 0.02 0.02 0.02 0.02 0.02 0.02 0.01 0.01 0.01 0.01 0.01 0.01 0.01 0.01 0.01 0.01 0.01
0.00 0.00 0.00 0.00 0.00 0.00 0.00 0.00 0.00 0.00 0.00 0.00 0.00 0.01 0.01 0.02 0.02 0.02 0.03 0.03 0.03 0.03 0.03 0.03 0.03 0.03 0.03 0.03 0.02 0.02 0.02 0.02 0.02 0.01 0.01 0.01 0.01 0.01 0.01 0.01 0.01 0.01 0.01
0.00 0.00 0.00 0.00 0.00 0.00 0.00 0.00 0.00 0.00 0.00 0.00 0.00 0.01 0.01 0.02 0.02 0.02 0.02 0.02 0.02 0.02 0.03 0.03 0.03 0.03 0.03 0.03 0.03 0.03 0.02 0.02 0.02 0.02 0.01 0.01 0.01 0.01 0.01 0.01 0.01 0.01 0.01
0.00 0.00 0.00 0.00 0.00 0.00 0.00 0.00 0.00 0.00 0.00 0.00 0.01 0.01 0.02 0.02 0.02 0.02 0.02 0.02 0.02 0.02 0.02 0.03 0.03 0.02 0.02 0.03 0.03 0.02 0.02 0.02 0.02 0.02 0.02 0.01 0.01 0.01 0.01 0.01 0.01 0.01 0.01
0.00 0.00 0.00 0.00 0.00 0.00 0.00 0.00 0.00 0.01 0.01 0.01 0.01 0.01 0.01 0.02 0.02 0.02 0.02 0.02 0.03 0.03 0.03 0.03 0.03 0.03 0.02 0.02 0.02 0.02 0.02 0.02 0.02 0.02 0.02 0.02 0.01 0.01 0.01 0.01 0.01 0.01 0.01
0.00 0.00 0.00 0.00 0.00 0.00 0.00 0.00 0.01 0.01 0.01 0.01 0.01 0.01 0.01 0.01 0.01 0.01 0.02 0.02 0.02 0.03 0.03 0.03 0.03 0.03 0.03 0.03 0.02 0.02 0.02 0.02 0.02 0.02 0.02 0.01 0.01 0.01 0.01 0.01 0.01 0.01 0.01
0.00 0.00 0.00 0.00 0.00 0.00 0.00 0.00 0.00 0.01 0.01 0.01 0.01 0.01 0.01 0.01 0.01 0.01 0.02 0.02 0.02 0.02 0.02 0.02 0.02 0.03 0.03 0.03 0.03 0.02 0.02 0.02 0.02 0.02 0.02 0.02 0.01 0.01 0.01 0.01 0.01 0.01 0.01
0.00 0.00 0.00 0.00 0.00 0.00 0.00 0.00 0.00 0.00 0.00 0.01 0.01 0.01 0.01 0.01 0.01 0.01 0.01 0.01 0.02 0.02 0.02 0.02 0.02 0.03 0.03 0.03 0.03 0.03 0.03 0.03 0.03 0.02 0.02 0.02 0.02 0.02 0.02 0.02 0.02 0.01 0.01
MSLP
1010.44 1010.76 1011.08 1011.40 1011.71 1012.02 1012.35 1012.68 1013.04 1013.43 1013.86 1014.33 1014.84 1015.38 1015.95 1016.55 1017.17 1017.80 1018.45 1019.11 1019.77 1020.43 1021.09 1021.74 1022.38 1023.03 1023.68 1024.34 1025.04 1025.77 1026.55 1027.36 1028.19 1029.01 1029.79 1030.49 1031.08 1031.54 1031.85 1032.02 1032.06 1031.99 1031.86
1010.18 1010.40 1010.60 1010.82 1011.04 1011.27 1011.54 1011.84 1012.19 1012.59 1013.03 1013.52 1014.05 1014.62 1015.22 1015.84 1016.50 1017.18 1017.88 1018.60 1019.32 1020.05 1020.76 1021.45 1022.12 1022.77 1023.41 1024.06 1024.72 1025.42 1026.16 1026.95 1027.76 1028.57 1029.36 1030.09 1030.71 1031.21 1031.57 1031.79 1031.87 1031.85 1031.76
1010.01 1010.14 1010.26 1010.39 1010.53 1010.71 1010.94 1011.23 1011.57 1011.98 1012.44 1012.95 1013.50 1014.08 1014.69 1015.32 1015.99 1016.68 1017.40 1018.15 1018.90 1019.66 1020.40 1021.12 1021.82 1022.49 1023.13 1023.77 1024.43 1025.11 1025.83 1026.59 1027.38 1028.18 1028.97 1029.69 1030.33 1030.86 1031.24 1031.50 1031.63 1031.66 1031.61
1009.85 1009.94 1010.01 1010.09 1010.20 1010.35 1010.56 1010.84 1011.20 1011.62 1012.11 1012.63 1013.19 1013.77 1014.37 1014.99 1015.63 1016.30 1017.00 1017.73 1018.48 1019.23 1019.99 1020.72 1021.44 1022.12 1022.79 1023.44 1024.11 1024.79 1025.51 1026.26 1027.03 1027.82 1028.59 1029.30 1029.94 1030.47 1030.87 1031.16 1031.33 1031.40 1031.40
1009.67 1009.76 1009.84 1009.91 1010.01 1010.17 1010.39 1010.69 1011.07 1011.52 1012.02 1012.55 1013.11 1013.67 1014.24 1014.82 1015.41 1016.02 1016.66 1017.34 1018.04 1018.77 1019.51 1020.24 1020.96 1021.67 1022.36 1023.04 1023.73 1024.44 1025.16 1025.91 1026.68 1027.45 1028.19 1028.89 1029.51 1030.04 1030.45 1030.76 1030.96 1031.08 1031.14
1009.47 1009.62 1009.73 1009.84 1009.98 1010.17 1010.42 1010.75 1011.16 1011.62 1012.13 1012.67 1013.20 1013.73 1014.25 1014.76 1015.28 1015.81 1016.38 1016.98 1017.61 1018.29 1018.99 1019.71 1020.43 1021.15 1021.87 1022.58 1023.30 1024.03 1024.77 1025.52 1026.29 1027.04 1027.77 1028.44 1029.05 1029.57 1029.99 1030.32 1030.56 1030.72 1030.83
1009.28 1009.52 1009.71 1009.88 1010.08 1010.31 1010.60 1010.97 1011.39 1011.87 1012.37 1012.88 1013.39 1013.87 1014.33 1014.77 1015.20 1015.65 1016.12 1016.64 1017.20 1017.81 1018.47 1019.16 1019.87 1020.60 1021.33 1022.07 1022.82 1023.57 1024.33 1025.09 1025.85 1026.59 1027.30 1027.96 1028.55 1029.06 1029.50 1029.85 1030.12 1030.34 1030.50
1009.14 1009.48 1009.76 1010.02 1010.27 1010.55 1010.88 1011.26 1011.69 1012.15 1012.64 1013.12 1013.57 1014.00 1014.40 1014.76 1015.12 1015.49 1015.88 1016.32 1016.82 1017.38 1017.99 1018.64 1019.34 1020.06 1020.80 1021.56 1022.32 1023.08 1023.85 1024.62 1025.37 1026.10 1026.79 1027.44 1028.02 1028.54 1028.98 1029.36 1029.68 1029.94 1030.16
1009.08 1009.51 1009.88 1010.20 1010.51 1010.82 1011.16 1011.54 1011.96 1012.39 1012.84 1013.27 1013.67 1014.04 1014.38 1014.69 1014.99 1015.30 1015.64 1016.04 1016.49 1017.00 1017.58 1018.21 1018.89 1019.60 1020.33 1021.08 1021.84 1022.60 1023.36 1024.12 1024.86 1025.58 1026.26 1026.90 1027.48 1028.01 1028.48 1028.89 1029.24 1029.56 1029.82
1009.10 1009.60 1010.01 1010.38 1010.72 1011.04 1011.38 1011.75 1012.12 1012.52 1012.91 1013.28 1013.64 1013.95 1014.24 1014.52 1014.79 1015.07 1015.40 1015.77 1016.20 1016.70 1017.26 1017.87 1018.53 1019.22 1019.93 1020.66 1021.40 1022.14 1022.88 1023.62 1024.34 1025.04 1025.72 1026.35 1026.94 1027.48 1027.97 1028.42 1028.82 1029.18 1029.49
1009.18 1009.69 1010.12 1010.50 1010.84 1011.17 1011.49 1011.82 1012.16 1012.50 1012.83 1013.15 1013.45 1013.73 1013.99 1014.24 1014.51 1014.80 1015.13 1015.52 1015.96 1016.46 1017.02 1017.62 1018.26 1018.93 1019.61 1020.31 1021.01 1021.72 1022.43 1023.13 1023.83 1024.52 1025.18 1025.81 1026.41 1026.96 1027.48 1027.96 1028.39 1028.79 1029.15
1009.26 1009.74 1010.16 1010.53 1010.85 1011.16 1011.46 1011.76 1012.05 1012.34 1012.63 1012.90 1013.15 1013.40 1013.64 1013.90 1014.17 1014.49 1014.85 1015.26 1015.74 1016.26 1016.83 1017.43 1018.06 1018.70 1019.35 1020.00 1020.66 1021.33 1021.99 1022.66 1023.33 1023.99 1024.64 1025.27 1025.87 1026.44 1026.98 1027.48 1027.94 1028.37 1028.76
1009.32 1009.74 1010.12 1010.45 1010.76 1011.05 1011.33 1011.60 1011.87 1012.12 1012.37 1012.60 1012.82 1013.04 1013.27 1013.52 1013.81 1014.16 1014.55 1015.01 1015.52 1016.07 1016.65 1017.26 1017.87 1018.49 1019.10 1019.72 1020.33 1020.94 1021.56 1022.19 1022.83 1023.47 1024.10 1024.72 1025.32 1025.90 1026.44 1026.96 1027.44 1027.89 1028.31
1009.35 1009.68 1010.00 1010.30 1010.59 1010.88 1011.16 1011.43 1011.68 1011.91 1012.13 1012.33 1012.52 1012.71 1012.92 1013.17 1013.47 1013.83 1014.24 1014.73 1015.26 1015.84 1016.43 1017.04 1017.64 1018.24 1018.82 1019.39 1019.96 1020.53 1021.11 1021.70 1022.31 1022.92 1023.53 1024.14 1024.73 1025.31 1025.86 1026.38 1026.87 1027.32 1027.76
1009.36 1009.61 1009.87 1010.15 1010.44 1010.73 1011.03 1011.31 1011.57 1011.80 1011.99 1012.16 1012.32 1012.48 1012.65 1012.88 1013.16 1013.50 1013.92 1014.41 1014.95 1015.53 1016.13 1016.74 1017.33 1017.90 1018.46 1019.00 1019.53 1020.06 1020.60 1021.16 1021.73 1022.32 1022.91 1023.51 1024.09 1024.65 1025.19 1025.71 1026.20 1026.66 1027.10
1009.41 1009.59 1009.81 1010.07 1010.37 1010.69 1011.02 1011.32 1011.60 1011.82 1012.00 1012.14 1012.25 1012.36 1012.48 1012.66 1012.89 1013.20 1013.58 1014.05 1014.57 1015.13 1015.72 1016.31 1016.89 1017.44 1017.97 1018.49 1018.99 1019.50 1020.01 1020.54 1021.09 1021.65 1022.23 1022.80 1023.37 1023.92 1024.45 1024.96 1025.44 1025.90 1026.35
1009.57 1009.69 1009.88 1010.15 1010.46 1010.81 1011.17 1011.50 1011.78 1012.00 1012.16 1012.26 1012.31 1012.35 1012.40 1012.50 1012.66 1012.90 1013.22 1013.63 1014.11 1014.64 1015.20 1015.76 1016.32 1016.86 1017.37 1017.86 1018.35 1018.83 1019.32 1019.83 1020.36 1020.91 1021.46 1022.02 1022.58 1023.11 1023.63 1024.13 1024.61 1025.08 1025.53
1009.89 1009.97 1010.14 1010.40 1010.74 1011.10 1011.48 1011.82 1012.10 1012.30 1012.42 1012.47 1012.46 1012.42 1012.38 1012.38 1012.45 1012.61 1012.85 1013.19 1013.61 1014.09 1014.60 1015.13 1015.66 1016.17 1016.66 1017.14 1017.61 1018.08 1018.55 1019.04 1019.56 1020.08 1020.63 1021.17 1021.71 1022.24 1022.76 1023.26 1023.74 1024.22 1024.70
1010.39 1010.44 1010.60 1010.85 1011.17 1011.54 1011.90 1012.23 1012.49 1012.65 1012.73 1012.71 1012.63 1012.51 1012.38 1012.30 1012.27 1012.34 1012.50 1012.76 1013.10 1013.52 1013.98 1014.46 1014.95 1015.44 1015.91 1016.36 1016.81 1017.26 1017.72 1018.20 1018.69 1019.20 1019.73 1020.26 1020.79 1021.32 1021.84 1022.35 1022.85 1023.36 1023.86
1011.06 1011.08 1011.21 1011.43 1011.72 1012.05 1012.38 1012.67 1012.88 1013.00 1013.01 1012.93 1012.78 1012.59 1012.39 1012.23 1012.13 1012.11 1012.19 1012.38 1012.65 1013.00 1013.40 1013.83 1014.28 1014.72 1015.16 1015.58 1016.00 1016.43 1016.86 1017.31 1017.78 1018.28 1018.78 1019.31 1019.83 1020.36 1020.89 1021.42 1021.95 1022.49 1023.04
1011.85 1011.83 1011.91 1012.08 1012.31 1012.58 1012.84 1013.06 1013.21 1013.27 1013.23 1013.11 1012.91 1012.67 1012.42 1012.20 1012.05 1011.97 1011.99 1012.11 1012.32 1012.60 1012.94 1013.31 1013.69 1014.08 1014.47 1014.85 1015.23 1015.62 1016.02 1016.43 1016.88 1017.34 1017.83 1018.33 1018.85 1019.38 1019.93 1020.48 1021.04 1021.61 1022.21
1012.67 1012.60 1012.62 1012.72 1012.88 1013.06 1013.24 1013.39 1013.47 1013.47 1013.39 1013.23 1013.01 1012.75 1012.49 1012.25 1012.07 1011.96 1011.94 1012.00 1012.15 1012.37 1012.64 1012.93 1013.25 1013.57 1013.90 1014.22 1014.54 1014.87 1015.22 1015.59 1015.99 1016.42 1016.87 1017.36 1017.86 1018.39 1018.94 1019.51 1020.10 1020.71 1021.34
1013.45 1013.33 1013.28 1013.29 1013.36 1013.46 1013.55 1013.63 1013.65 1013.62 1013.52 1013.35 1013.13 1012.89 1012.64 1012.41 1012.23 1012.11 1012.06 1012.09 1012.18 1012.33 1012.52 1012.74 1012.98 1013.22 1013.46 1013.70 1013.96 1014.22 1014.51 1014.82 1015.16 1015.54 1015.95 1016.40 1016.89 1017.40 1017.94 1018.52 1019.12 1019.75 1020.42
1014.12 1013.95 1013.83 1013.77 1013.76 1013.78 1013.80 1013.82 1013.81 1013.76 1013.66 1013.51 1013.32 1013.12 1012.90 1012.71 1012.54 1012.42 1012.35 1012.34 1012.38 1012.46 1012.57 1012.70 1012.85 1013.00 1013.15 1013.31 1013.48 1013.67 1013.88 1014.12 1014.40 1014.72 1015.09 1015.49 1015.94 1016.43 1016.95 1017.51 1018.11 1018.75 1019.42
1014.65 1014.44 1014.27 1014.16 1014.08 1014.04 1014.02 1014.01 1013.98 1013.94 1013.86 1013.75 1013.60 1013.44 1013.28 1013.12 1012.97 1012.85 1012.77 1012.72 1012.70 1012.70 1012.73 1012.77 1012.82 1012.88 1012.94 1013.01 1013.10 1013.20 1013.34 1013.51 1013.73 1013.99 1014.29 1014.64 1015.04 1015.49 1015.98 1016.51 1017.09 1017.71 1018.37
1015.03 1014.80 1014.61 1014.46 1014.35 1014.29 1014.25 1014.23 1014.21 1014.18 1014.13 1014.06 1013.97 1013.85 1013.73 1013.59 1013.46 1013.33 1013.22 1013.12 1013.04 1012.97 1012.92 1012.87 1012.83 1012.80 1012.77 1012.76 1012.77 1012.81 1012.87 1012.98 1013.13 1013.32 1013.57 1013.87 1014.22 1014.62 1015.07 1015.56 1016.11 1016.70 1017.33
Thickness
5672 5672 5671 5671 5670 5668 5665 5664 5661 5657 5654 5650 5646 5640 5635 5630 5625 5619 5613 5606 5599 5593 5586 5580 5573 5566 5559 5551 5544 5538 5530 5522 5510 5500 5492 5482 5473 5465 5457 5449 5443 5436 5429
5663 5663 5664 5664 5663 5661 5660 5657 5654 5650 5647 5644 5639 5634 5628 5623 5617 5611 5604 5598 5591 5584 5577 5570 5563 5555 5548 5541 5533 5527 5519 5512 5502 5489 5479 5470 5462 5455 5447 5439 5432 5425 5418
5653 5653 5653 5653 5653 5653 5652 5650 5646 5643 5639 5635 5631 5626 5620 5614 5608 5602 5596 5589 5583 5577 5569 5562 5554 5546 5537 5530 5522 5515 5507 5500 5491 5480 5469 5460 5451 5444 5436 5428 5421 5414 5407
5642 5642 5642 5643 5643 5643 5642 5639 5636 5633 5629 5626 5621 5617 5611 5605 5599 5592 5586 5579 5572 5566 5559 5553 5545 5538 5530 5521 5512 5504 5496 5486 5477 5468 5458 5449 5441 5433 5425 5417 5409 5403 5396
5630 5631 5632 5631 5630 5629 5628 5626 5624 5621 5618 5614 5609 5604 5599 5593 5588 5581 5574 5568 5561 5554 5547 5541 5534 5528 5521 5512 5503 5494 5485 5475 5465 5455 5447 5438 5430 5422 5415 5407 5399 5391 5385
5619 5619 5618 5617 5615 5614 5613 5611 5609 5606 5603 5599 5595 5591 5586 5581 5576 5570 5564 5556 5550 5543 5535 5527 5521 5514 5507 5500 5491 5483 5477 5467 5456 5446 5438 5430 5422 5414 5405 5396 5388 5380 5373
5606 5604 5602 5601 5600 5598 5597 5595 5593 5591 5588 5584 5581 5577 5573 5569 5564 5557 5551 5545 5539 5532 5525 5517 5508 5501 5494 5486 5478 5470 5463 5456 5449 5440 5430 5422 5413 5404 5395 5385 5377 5368 5361
5591 5589 5587 5586 5585 5582 5581 5580 5578 5575 5573 5570 5566 5563 5559 5555 5550 5544 5537 5531 5525 5519 5513 5507 5499 5490 5482 5474 5466 5457 5449 5442 5435 5428 5420 5411 5402 5393 5384 5375 5366 5357 5349
5578 5576 5574 5572 5570 5568 5567 5565 5562 5560 5558 5555 5552 5548 5544 5539 5535 5530 5523 5516 5510 5503 5498 5492 5486 5478 5471 5463 5453 5444 5435 5428 5421 5414 5406 5397 5389 5380 5372 5361 5351 5342 5335
5566 5563 5561 5559 5557 5555 5553 5551 5548 5545 5543 5539 5535 5533 5530 5525 5521 5516 5510 5504 5496 5489 5482 5476 5470 5465 5459 5452 5443 5434 5425 5417 5408 5399 5392 5384 5375 5367 5358 5350 5340 5329 5321
5552 5550 5547 5545 5543 5541 5538 5535 5533 5530 5526 5523 5520 5516 5513 5510 5506 5502 5497 5491 5486 5477 5470 5463 5458 5452 5446 5440 5432 5424 5416 5406 5396 5387 5378 5370 5361 5353 5345 5336 5328 5319 5309
5537 5535 5533 5531 5529 5526 5524 5521 5517 5514 5511 5507 5504 5500 5496 5493 5490 5487 5482 5477 5471 5465 5459 5452 5446 5440 5433 5426 5417 5410 5402 5392 5382 5373 5365 5357 5349 5341 5333 5323 5315 5306 5298
5522 5520 5518 5516 5514 5511 5509 5506 5503 5500 5497 5493 5489 5485 5480 5477 5474 5471 5467 5462 5457 5450 5445 5439 5432 5426 5419 5411 5404 5396 5387 5378 5370 5361 5355 5348 5339 5330 5320 5311 5302 5293 5284
5507 5504 5502 5500 5498 5495 5493 5492 5489 5486 5483 5480 5476 5472 5467 5463 5460 5456 5451 5446 5441 5435 5429 5422 5416 5410 5403 5396 5388 5381 5373 5366 5359 5351 5344 5335 5325 5316 5306 5298 5288 5279 5270
5491 5488 5486 5485 5483 5480 5477 5476 5473 5472 5470 5468 5464 5461 5456 5452 5449 5445 5440 5433 5428 5421 5414 5406 5400 5394 5388 5380 5373 5366 5358 5351 5344 5337 5329 5320 5311 5302 5293 5284 5275 5266 5257
5475 5473 5471 5469 5467 5464 5462 5459 5458 5456 5454 5452 5450 5447 5443 5441 5436 5431 5426 5420 5414 5407 5400 5394 5389 5383 5376 5369 5361 5353 5346 5339 5332 5324 5315 5307 5298 5290 5281 5271 5262 5254 5246
5459 5457 5455 5453 5450 5448 5446 5444 5440 5438 5437 5436 5434 5431 5428 5425 5422 5417 5411 5405 5399 5393 5387 5382 5377 5371 5364 5357 5349 5342 5335 5328 5319 5310 5302 5294 5286 5277 5268 5259 5250 5241 5233
5442 5440 5438 5436 5434 5432 5430 5428 5426 5422 5419 5416 5416 5415 5412 5409 5406 5401 5396 5390 5384 5379 5374 5369 5364 5358 5351 5344 5337 5330 5322 5313 5305 5297 5289 5281 5273 5264 5256 5247 5239 5230 5221
5423 5422 5420 5419 5417 5415 5413 5411 5409 5407 5404 5400 5397 5396 5395 5392 5389 5385 5381 5376 5371 5366 5360 5355 5349 5344 5337 5331 5324 5317 5309 5301 5292 5284 5276 5268 5259 5251 5243 5235 5226 5218 5209
5403 5403 5402 5401 5400 5398 5396 5393 5391 5389 5386 5384 5381 5379 5376 5373 5370 5368 5365 5361 5356 5352 5346 5341 5335 5329 5322 5316 5309 5302 5294 5286 5278 5270 5262 5254 5245 5237 5230 5221 5213 5205 5197
5383 5383 5383 5382 5381 5379 5377 5375 5373 5371 5369 5366 5364 5362 5361 5357 5354 5352 5348 5345 5340 5336 5330 5325 5319 5313 5306 5299 5293 5286 5279 5272 5265 5256 5248 5239 5231 5223 5215 5208 5200 5191 5183
5362 5362 5362 5361 5360 5358 5357 5355 5354 5352 5350 5347 5345 5342 5343 5338 5335 5333 5330 5327 5322 5317 5313 5307 5302 5297 5291 5284 5277 5270 5263 5256 5249 5241 5233 5224 5216 5208 5200 5192 5184 5177 5169
5341 5341 5340 5339 5338 5337 5335 5334 5332 5331 5329 5327 5325 5322 5320 5318 5316 5313 5310 5306 5302 5298 5293 5288 5284 5278 5273 5267 5260 5254 5247 5241 5234 5226 5218 5210 5201 5193 5185 5178 5171 5163 5155
5318 5318 5317 5316 5315 5314 5313 5311 5310 5308 5306 5304 5302 5300 5298 5296 5293 5291 5288 5285 5281 5277 5273 5268 5263 5258 5253 5247 5241 5235 5229 5223 5216 5209 5202 5194 5186 5178 5170 5163 5156 5149 5142
5294 5294 5293 5292 5291 5290 5289 5287 5286 5284 5282 5280 5278 5277 5274 5272 5270 5267 5264 5261 5258 5254 5250 5246 5241 5236 5231 5226 5221 5215 5209 5203 5197 5191 5184 5177 5170 5163 5155 5149 5142 5135 5129
5271 5270 5269 5268 5267 5265 5264 5263 5261 5260 5258 5256 5254 5252 5250 5247 5245 5242 5239 5237 5234 5230 5226 5222 5218 5213 5208 5203 5198 5193 5188 5182 5177 5171 5165 5159 5153 5147 5140 5134 5128 5121 5115